ADN5C VNLK-EDDN

Flight info

Callsign ADN5C
Flight time N/A
Altitude 38000
Route KIMTI B345 KEVOD Z2 JAL R594 SSB/N0428F400 L626 DPN G333 MERUN G202 RK J132 LUBNA G214 PG G208 KEBUD L124 SODOK T216 PEGOS/N0423F430 T216 DAR L125 BUDED L333 DASIS UL746 ODERO DCT LUGEB DCT DEGET DCT ABETI DCT TAGAS DCT RENKA L610 STAUB/N0426F240 L610 UPALA UPALA1V
Aircraft LJ35/M-SGHRWXY/SB1

Departure

Time 2026-04-17 01:29
Airport Tenzing-Hillary Airport (VNLK)

Arrival

Time N/A
Airport Nuremberg Airport (EDDN)
Time Latitude Longitude Altitude Speed Heading
2026-04-17 01:20 27.68746 86.73198 9402 ft 0 kts 39°
2026-04-17 01:26 27.68751 86.73199 9404 ft 2 kts 348°
2026-04-17 01:26 27.68771 86.73168 9407 ft 7 kts 320°
2026-04-17 01:26 27.68783 86.73165 9405 ft 1 kts 22°
2026-04-17 01:26 27.68790 86.73178 9405 ft 4 kts 72°
2026-04-17 01:27 27.68801 86.73174 9405 ft 2 kts 244°
2026-04-17 01:27 27.68801 86.73176 9405 ft 1 kts 255°
2026-04-17 01:27 27.68804 86.73184 9405 ft 0 kts 239°
2026-04-17 01:28 27.68750 86.73084 9383 ft 54 kts 239°
2026-04-17 01:28 27.68363 86.72330 8870 ft 163 kts 244°
2026-04-17 01:29 27.67854 86.71065 9289 ft 182 kts 263°
2026-04-17 01:29 27.67900 86.68805 10230 ft 189 kts 258°
2026-04-17 01:29 27.67435 86.67576 11309 ft 130 kts 243°
2026-04-17 01:30 27.67185 86.66890 11965 ft 14 kts 210°
2026-04-17 01:30 27.68746 86.73198 9404 ft 0 kts 39°
2026-04-17 01:35 27.68754 86.73199 9403 ft 3 kts 352°
2026-04-17 01:36 27.68770 86.73169 9406 ft 6 kts 336°
2026-04-17 01:36 27.68763 86.73111 9401 ft 33 kts 239°
2026-04-17 01:36 27.68437 86.72480 8963 ft 149 kts 242°
2026-04-17 01:36 27.68601 86.72106 8496 ft 378 kts 134°
2026-04-17 01:37 27.69442 86.72619 9125 ft 0 kts 134°
2026-04-17 01:37 27.69226 86.72868 9411 ft 0 kts 134°
2026-04-17 01:37 27.68805 86.73186 9405 ft 0 kts 206°
2026-04-17 01:37 27.68800 86.73189 9405 ft 0 kts 243°
2026-04-17 01:38 27.68776 86.73139 9404 ft 36 kts 242°
2026-04-17 01:38 27.68456 86.72515 9022 ft 146 kts 243°
2026-04-17 01:38 27.67738 86.71325 8842 ft 204 kts 235°
2026-04-17 01:38 27.66648 86.70042 9184 ft 245 kts 212°
2026-04-17 01:39 27.65063 86.69857 10561 ft 239 kts 150°
2026-04-17 01:39 27.64439 86.71511 11357 ft 255 kts 71°
2026-04-17 01:39 27.65752 86.72611 12506 ft 249 kts 360°
2026-04-17 01:39 27.67611 86.72480 12996 ft 285 kts 353°
2026-04-17 01:40 27.69530 86.72146 14628 ft 273 kts 348°
2026-04-17 01:40 27.71247 86.71664 16481 ft 215 kts 341°
2026-04-17 01:40 27.72670 86.71122 17882 ft 223 kts 337°
2026-04-17 01:40 27.73965 86.70411 19308 ft 188 kts 325°
2026-04-17 01:41 27.74979 86.69501 20108 ft 197 kts 314°
2026-04-17 01:41 27.75919 86.68202 20395 ft 226 kts 301°
2026-04-17 01:41 27.76628 86.66520 20771 ft 253 kts 285°
2026-04-17 01:41 27.76681 86.64449 21147 ft 280 kts 263°
2026-04-17 01:42 27.76308 86.62191 21570 ft 301 kts 261°
2026-04-17 01:42 27.76011 86.59846 22488 ft 302 kts 267°
2026-04-17 01:42 27.75892 86.57512 23634 ft 300 kts 270°
2026-04-17 01:42 27.75792 86.55147 24507 ft 303 kts 268°
2026-04-17 01:43 27.75634 86.52751 25365 ft 306 kts 268°
2026-04-17 01:43 27.75464 86.50387 26168 ft 306 kts 268°
2026-04-17 01:43 27.75295 86.47963 26935 ft 309 kts 268°
2026-04-17 01:43 27.75138 86.45526 27700 ft 312 kts 269°
2026-04-17 01:44 27.74983 86.43095 28423 ft 314 kts 269°
2026-04-17 01:44 27.74817 86.40620 29142 ft 316 kts 269°
2026-04-17 01:44 27.74646 86.38114 29906 ft 319 kts 269°
2026-04-17 01:44 27.74477 86.35615 30536 ft 322 kts 269°
2026-04-17 01:45 27.74311 86.33087 31164 ft 323 kts 269°
2026-04-17 01:45 27.74143 86.30575 31773 ft 323 kts 269°
2026-04-17 01:45 27.73970 86.28030 32338 ft 325 kts 269°
2026-04-17 01:45 27.73797 86.25495 32926 ft 326 kts 269°
2026-04-17 01:46 27.73625 86.22931 33481 ft 327 kts 269°
2026-04-17 01:46 27.73450 86.20360 33986 ft 329 kts 269°
2026-04-17 01:46 27.73276 86.17808 34435 ft 329 kts 268°
2026-04-17 01:46 27.73099 86.15207 34795 ft 332 kts 268°
2026-04-17 01:47 27.72922 86.12610 35240 ft 330 kts 268°
2026-04-17 01:47 27.72742 86.10030 35519 ft 336 kts 268°
2026-04-17 01:47 27.72558 86.07380 35942 ft 338 kts 268°
2026-04-17 01:47 27.72378 86.04764 36312 ft 339 kts 268°
2026-04-17 01:48 27.72194 86.02089 36308 ft 341 kts 268°
2026-04-17 01:48 27.72008 85.99431 36706 ft 340 kts 268°
2026-04-17 01:48 27.71820 85.96754 36998 ft 342 kts 268°
2026-04-17 01:48 27.71637 85.94096 37329 ft 344 kts 268°
2026-04-17 01:49 27.71448 85.91388 37686 ft 345 kts 268°
2026-04-17 01:49 27.71258 85.88709 37962 ft 346 kts 268°
2026-04-17 01:49 27.71064 85.85976 38131 ft 351 kts 268°
2026-04-17 01:50 27.70669 85.80355 38148 ft 367 kts 268°
2026-04-17 01:50 27.70254 85.74527 38142 ft 380 kts 268°
2026-04-17 01:51 27.69820 85.68503 38142 ft 388 kts 268°
2026-04-17 01:51 27.69383 85.62422 38144 ft 392 kts 268°
2026-04-17 01:52 27.68939 85.56304 38136 ft 393 kts 267°
2026-04-17 01:52 27.68489 85.50162 38134 ft 393 kts 268°
2026-04-17 01:53 27.68037 85.44007 38135 ft 395 kts 268°